Flag for Germany

Past Weather in Langenfeld (Rheinland), North Rhine-Westphalia, Germany — Yesterday and Last 2 Weeks

Currently: 43 °F. Light rain. Passing clouds. (Weather station: Duesseldorf, Germany). See more current weather

Past Weather in Langenfeld (Rheinland) — Graph

°F

Langenfeld (Rheinland) Temperature Yesterday

Maximum temperature yesterday: 50 °F (at 12:50 pm)
Minimum temperature yesterday: 39 °F (at 6:50 pm)
Average temperature yesterday: 44 °F

High & Low Weather Summary for the Past Weeks

 TemperatureHumidityPressure
High61 °F (Feb 15, 1:50 pm)100% (Feb 11, 2:20 am)30.51 "Hg (Feb 11, 2:20 am)
Low36 °F (Feb 12, 11:50 pm)58% (Feb 13, 2:50 pm)28.91 "Hg (Feb 22, 6:50 pm)
Average48 °F82%29.85 "Hg
* Reported Feb 11 2:20 am — Feb 26 2:20 am, Langenfeld (Rheinland). Weather by CustomWeather, © 2024

Note: Actual official high and low records may vary slightly from our data, if they occured in-between our weather recording intervals... More about our weather records

Langenfeld (Rheinland) Weather History for the Previous 24 Hours

Scroll right to see more
 ConditionsComfort  
Time TempWeatherWind HumidityBarometerVisibility
2:20 am
Mon, Feb 26
43 °FClear.7 mph76%29.47 "Hg10 mi
1:50 am45 °FPassing clouds.5 mph71%29.47 "HgN/A
12:20 am45 °FClear.6 mph71%29.47 "Hg10 mi
11:50 pm
Sun, Feb 25
43 °FPassing clouds.8 mph76%29.47 "HgN/A
11:20 pm43 °FClear.8 mph76%29.47 "Hg10 mi
10:50 pm43 °FClear.9 mph76%29.47 "Hg10 mi
10:20 pm43 °FClear.10 mph76%29.50 "Hg10 mi
9:50 pm41 °FClear.8 mph81%29.50 "Hg10 mi
9:20 pm41 °FClear.9 mph81%29.50 "Hg10 mi
8:50 pm41 °FClear.8 mph76%29.50 "Hg10 mi
8:20 pm41 °FClear.8 mph76%29.53 "Hg10 mi
7:50 pm39 °FClear.6 mph81%29.53 "Hg10 mi
7:20 pm41 °FClear.6 mph81%29.53 "Hg10 mi
6:50 pm39 °FPassing clouds.7 mph93%29.53 "HgN/A
6:20 pm41 °FClear.6 mph93%29.53 "Hg10 mi
5:50 pm45 °FSunny.5 mph87%29.53 "Hg10 mi
5:20 pm46 °FSunny.5 mph82%29.53 "Hg10 mi
4:50 pm45 °FSunny.5 mph87%29.53 "Hg10 mi
4:20 pm48 °FSunny.7 mph76%29.53 "Hg10 mi
3:20 pm45 °FSprinkles. Partly sunny.8 mph81%29.56 "HgN/A
2:50 pm46 °FRain showers. Broken clouds.14 mph76%29.56 "HgN/A
2:20 pm48 °FSprinkles. Broken clouds.7 mph66%29.56 "HgN/A
1:50 pm48 °FPartly sunny.9 mph62%29.56 "HgN/A
1:20 pm48 °FBroken clouds.12 mph62%29.56 "HgN/A
12:50 pm50 °FPartly sunny.10 mph62%29.56 "HgN/A
12:20 pm48 °FPartly sunny.14 mph66%29.59 "HgN/A
11:50 am48 °FPartly sunny.14 mph66%29.59 "HgN/A
11:20 am46 °FScattered clouds.15 mph71%29.59 "HgN/A
10:50 am46 °FPartly sunny.15 mph71%29.59 "HgN/A
10:20 am46 °FPartly sunny.15 mph71%29.59 "HgN/A
9:50 am45 °FPassing clouds.14 mph76%29.59 "HgN/A
9:20 am45 °FPartly sunny.13 mph76%29.59 "HgN/A
8:50 am43 °FPartly sunny.14 mph76%29.59 "HgN/A
8:20 am43 °FPartly sunny.12 mph76%29.59 "HgN/A
7:50 am43 °FScattered clouds.14 mph76%29.56 "HgN/A
7:20 am43 °FPartly cloudy.14 mph76%29.56 "HgN/A
6:50 am43 °FPassing clouds.14 mph76%29.56 "HgN/A
6:20 am43 °FPartly cloudy.18 mph76%29.56 "HgN/A
5:50 am43 °FOvercast.15 mph76%29.56 "HgN/A
5:20 am43 °FSprinkles. Mostly cloudy.17 mph76%29.56 "HgN/A
4:50 am43 °FOvercast.16 mph76%29.56 "HgN/A
4:20 am43 °FPassing clouds.16 mph76%29.56 "HgN/A
3:20 am43 °FPassing clouds.15 mph76%29.56 "HgN/A
Weather by CustomWeather, © 2024

See weather overview